Year,Month,Day,Hour,Minute,Value (Times are PST for windspeed in km/hr)
2005,05,22,00,00,0.00
2005,05,22,00,01,0.00
2005,05,22,00,02,0.00
2005,05,22,00,03,0.80
2005,05,22,00,05,0.40
2005,05,22,00,06,0.50
2005,05,22,00,07,0.00
2005,05,22,00,08,0.00
2005,05,22,00,09,0.00
2005,05,22,00,10,0.00
2005,05,22,00,11,0.20
2005,05,22,00,12,1.60
2005,05,22,00,13,0.90
2005,05,22,00,14,0.00
2005,05,22,00,21,1.90
2005,05,22,00,24,0.00
2005,05,22,00,25,0.00
2005,05,22,00,26,0.00
2005,05,22,00,27,0.00
2005,05,22,00,28,0.00
2005,05,22,00,29,0.00
2005,05,22,00,30,0.00
2005,05,22,00,31,0.00
2005,05,22,00,32,0.00
2005,05,22,00,33,0.00
2005,05,22,00,34,0.60
2005,05,22,00,35,1.30
2005,05,22,00,36,0.10
2005,05,22,00,37,0.00
2005,05,22,00,38,0.00
2005,05,22,00,39,0.00
2005,05,22,00,40,0.00
2005,05,22,00,41,0.00
2005,05,22,00,42,0.00
2005,05,22,00,43,0.00
2005,05,22,00,44,0.00
2005,05,22,00,45,0.00
2005,05,22,00,46,0.00
2005,05,22,00,47,0.00
2005,05,22,00,48,0.00
2005,05,22,00,49,0.00
2005,05,22,00,50,0.00
2005,05,22,00,51,0.00
2005,05,22,00,52,0.00
2005,05,22,00,53,0.00
2005,05,22,00,54,0.00
2005,05,22,00,55,0.00
2005,05,22,00,56,0.00
2005,05,22,00,57,0.00
2005,05,22,00,58,1.70
2005,05,22,00,59,1.80
2005,05,22,01,00,0.90
2005,05,22,01,01,2.20
2005,05,22,01,02,3.10
2005,05,22,01,03,3.00
2005,05,22,01,04,2.50
2005,05,22,01,05,3.00
2005,05,22,01,06,4.50
2005,05,22,01,07,3.70
2005,05,22,01,08,3.40
2005,05,22,01,09,3.70
2005,05,22,01,10,3.70
2005,05,22,01,11,2.90
2005,05,22,01,12,2.80
2005,05,22,01,13,2.30
2005,05,22,01,14,2.00
2005,05,22,01,15,3.20
2005,05,22,01,16,3.20
2005,05,22,01,17,2.00
2005,05,22,01,18,2.10
2005,05,22,01,19,3.70
2005,05,22,01,20,2.50
2005,05,22,01,21,4.80
2005,05,22,01,22,3.90
2005,05,22,01,23,3.40
2005,05,22,01,24,2.50
2005,05,22,01,25,1.40
2005,05,22,01,26,1.40
2005,05,22,01,27,2.50
2005,05,22,01,28,0.80
2005,05,22,01,29,0.00
2005,05,22,01,30,0.00
2005,05,22,01,31,1.00
2005,05,22,01,32,0.90
2005,05,22,01,33,0.00
2005,05,22,01,34,0.00
2005,05,22,01,35,0.00
2005,05,22,01,36,0.00
2005,05,22,01,37,0.00
2005,05,22,01,38,0.00
2005,05,22,01,39,0.00
2005,05,22,01,40,1.50
2005,05,22,01,41,2.40
2005,05,22,01,42,2.60
2005,05,22,01,43,2.30
2005,05,22,01,44,3.40
2005,05,22,01,45,2.40
2005,05,22,01,46,3.00
2005,05,22,01,47,3.30
2005,05,22,01,48,3.10
2005,05,22,01,49,3.00
2005,05,22,01,50,3.10
2005,05,22,01,51,2.60
2005,05,22,01,52,1.00
2005,05,22,01,53,0.20
2005,05,22,01,54,0.00
2005,05,22,01,55,0.00
2005,05,22,01,56,0.00
2005,05,22,01,57,0.00
2005,05,22,01,58,0.00
2005,05,22,01,59,0.00
2005,05,22,02,00,0.00
2005,05,22,02,01,1.20
2005,05,22,02,02,1.60
2005,05,22,02,03,1.50
2005,05,22,02,04,1.80
2005,05,22,02,05,3.70
2005,05,22,02,06,3.60
2005,05,22,02,07,2.00
2005,05,22,02,08,2.60
2005,05,22,02,09,2.90
2005,05,22,02,10,2.10
2005,05,22,02,11,2.00
2005,05,22,02,12,3.70
2005,05,22,02,13,3.40
2005,05,22,02,14,3.00
2005,05,22,02,15,2.30
2005,05,22,02,16,0.60
2005,05,22,02,17,1.80
2005,05,22,02,18,1.20
2005,05,22,02,19,1.60
2005,05,22,02,20,0.10
2005,05,22,02,21,0.00
2005,05,22,02,22,0.00
2005,05,22,02,23,0.00
2005,05,22,02,24,0.00
2005,05,22,02,25,0.00
2005,05,22,02,26,0.00
2005,05,22,02,27,0.00
2005,05,22,02,28,0.20
2005,05,22,02,29,2.30
2005,05,22,02,30,1.20
2005,05,22,02,31,0.10
2005,05,22,02,32,0.00
2005,05,22,02,33,0.00
2005,05,22,02,34,0.00
2005,05,22,02,35,0.00
2005,05,22,02,36,0.00
2005,05,22,02,37,0.50
2005,05,22,02,38,2.40
2005,05,22,02,39,2.40
2005,05,22,02,40,1.80
2005,05,22,02,41,0.10
2005,05,22,02,42,0.60
2005,05,22,02,43,0.80
2005,05,22,02,44,0.00
2005,05,22,02,45,1.50
2005,05,22,02,46,2.20
2005,05,22,02,47,1.40
2005,05,22,02,48,0.10
2005,05,22,02,49,0.00
2005,05,22,02,50,0.00
2005,05,22,02,51,0.00
2005,05,22,02,52,0.00
2005,05,22,02,53,0.00
2005,05,22,02,54,0.00
2005,05,22,02,55,0.00
2005,05,22,02,56,0.00
2005,05,22,02,57,0.00
2005,05,22,02,58,0.00
2005,05,22,02,59,0.00
2005,05,22,03,00,0.00
2005,05,22,03,01,0.80
2005,05,22,03,02,1.10
2005,05,22,03,03,0.00
2005,05,22,03,04,0.00
2005,05,22,03,05,0.00
2005,05,22,03,06,0.00
2005,05,22,03,07,0.00
2005,05,22,03,08,0.00
2005,05,22,03,09,0.00
2005,05,22,03,10,0.00
2005,05,22,03,11,0.00
2005,05,22,03,12,0.00
2005,05,22,03,13,0.00
2005,05,22,03,14,0.00
2005,05,22,03,15,0.00
2005,05,22,03,16,0.00
2005,05,22,03,17,0.00
2005,05,22,03,18,0.00
2005,05,22,03,19,0.40
2005,05,22,03,20,1.70
2005,05,22,03,21,1.10
2005,05,22,03,22,0.60
2005,05,22,03,23,1.50
2005,05,22,03,24,0.90
2005,05,22,03,25,0.00
2005,05,22,03,26,0.00
2005,05,22,03,27,0.00
2005,05,22,03,28,0.00
2005,05,22,03,29,0.00
2005,05,22,03,30,0.00
2005,05,22,03,31,0.00
2005,05,22,03,32,0.00
2005,05,22,03,33,0.00
2005,05,22,03,34,0.00
2005,05,22,03,35,0.00
2005,05,22,03,36,0.00
2005,05,22,03,37,0.00
2005,05,22,03,38,0.00
2005,05,22,03,39,0.00
2005,05,22,03,40,0.00
2005,05,22,03,41,0.00
2005,05,22,03,42,0.00
2005,05,22,03,43,0.00
2005,05,22,03,44,0.00
2005,05,22,03,45,0.00
2005,05,22,03,46,0.00
2005,05,22,03,47,0.00
2005,05,22,03,48,0.00
2005,05,22,03,49,0.00
2005,05,22,03,50,0.60
2005,05,22,03,51,2.40
2005,05,22,03,52,2.30
2005,05,22,03,53,1.90
2005,05,22,03,54,1.70
2005,05,22,03,55,1.20
2005,05,22,03,56,0.00
2005,05,22,03,57,0.00
2005,05,22,03,58,0.00
2005,05,22,03,59,0.00
2005,05,22,04,00,0.00
2005,05,22,04,01,0.00
2005,05,22,04,02,0.00
2005,05,22,04,03,0.00
2005,05,22,04,04,0.00
2005,05,22,04,05,0.00
2005,05,22,04,06,0.00
2005,05,22,04,07,0.00
2005,05,22,04,08,0.00
2005,05,22,04,09,0.00
2005,05,22,04,10,0.00
2005,05,22,04,11,0.00
2005,05,22,04,12,0.00
2005,05,22,04,13,0.00
2005,05,22,04,14,0.00
2005,05,22,04,15,0.00
2005,05,22,04,16,0.00
2005,05,22,04,17,0.00
2005,05,22,04,18,0.00
2005,05,22,04,19,2.20
2005,05,22,04,20,0.20
2005,05,22,04,21,1.50
2005,05,22,04,22,0.30
2005,05,22,04,23,0.00
2005,05,22,04,24,0.60
2005,05,22,04,25,1.00
2005,05,22,04,26,0.00
2005,05,22,04,27,0.00
2005,05,22,04,28,0.00
2005,05,22,04,29,0.20
2005,05,22,04,30,2.00
2005,05,22,04,31,1.20
2005,05,22,04,32,1.50
2005,05,22,04,33,0.80
2005,05,22,04,34,0.00
2005,05,22,04,35,0.20
2005,05,22,04,36,0.00
2005,05,22,04,37,0.00
2005,05,22,04,38,0.50
2005,05,22,04,39,0.00
2005,05,22,04,40,0.00
2005,05,22,04,41,0.00
2005,05,22,04,42,0.00
2005,05,22,04,43,0.00
2005,05,22,04,44,0.00
2005,05,22,04,45,0.00
2005,05,22,04,46,0.00
2005,05,22,04,47,0.00
2005,05,22,04,48,0.00
2005,05,22,04,49,0.00
2005,05,22,04,50,0.00
2005,05,22,04,51,0.00
2005,05,22,04,52,0.00
2005,05,22,04,53,0.00
2005,05,22,04,54,0.10
2005,05,22,04,55,3.30
2005,05,22,04,56,1.80
2005,05,22,04,57,1.20
2005,05,22,04,58,2.30
2005,05,22,04,59,1.00
2005,05,22,05,00,0.80
2005,05,22,05,01,0.20
2005,05,22,05,02,0.00
2005,05,22,05,03,0.00
2005,05,22,05,04,0.00
2005,05,22,05,05,0.00
2005,05,22,05,06,0.00
2005,05,22,05,07,0.00
2005,05,22,05,08,0.60
2005,05,22,05,09,1.90
2005,05,22,05,10,2.20
2005,05,22,05,11,2.00
2005,05,22,05,12,2.00
2005,05,22,05,13,2.10
2005,05,22,05,14,1.90
2005,05,22,05,15,0.20
2005,05,22,05,16,0.00
2005,05,22,05,17,0.00
2005,05,22,05,18,0.00
2005,05,22,05,19,0.00
2005,05,22,05,20,0.00
2005,05,22,05,21,1.70
2005,05,22,05,22,3.70
2005,05,22,05,23,3.50
2005,05,22,05,24,2.50
2005,05,22,05,25,3.40
2005,05,22,05,26,2.70
2005,05,22,05,27,2.50
2005,05,22,05,28,2.70
2005,05,22,05,29,2.70
2005,05,22,05,30,2.50
2005,05,22,05,31,2.50
2005,05,22,05,32,0.00
2005,05,22,05,33,1.50
2005,05,22,05,34,0.60
2005,05,22,05,35,0.00
2005,05,22,05,36,0.00
2005,05,22,05,37,0.10
2005,05,22,05,38,0.00
2005,05,22,05,39,0.60
2005,05,22,05,40,1.40
2005,05,22,05,41,0.20
2005,05,22,05,42,0.00
2005,05,22,05,43,0.00
2005,05,22,05,44,0.00
2005,05,22,05,45,0.00
2005,05,22,05,46,0.00
2005,05,22,05,47,0.00
2005,05,22,05,48,0.00
2005,05,22,05,49,0.00
2005,05,22,05,50,0.00
2005,05,22,05,51,0.00
2005,05,22,05,52,0.80
2005,05,22,05,53,2.80
2005,05,22,05,54,2.80
2005,05,22,05,55,3.10
2005,05,22,05,56,2.00
2005,05,22,05,57,0.30
2005,05,22,05,58,0.00
2005,05,22,05,59,0.00
2005,05,22,06,00,0.00
2005,05,22,06,01,0.00
2005,05,22,06,02,0.00
2005,05,22,06,03,1.60
2005,05,22,06,04,0.30
2005,05,22,06,05,2.70
2005,05,22,06,06,3.30
2005,05,22,06,07,3.20
2005,05,22,06,08,2.50
2005,05,22,06,09,1.60
2005,05,22,06,10,1.20
2005,05,22,06,11,0.00
2005,05,22,06,12,1.90
2005,05,22,06,13,1.20
2005,05,22,06,14,1.30
2005,05,22,06,15,2.30
2005,05,22,06,16,0.60
2005,05,22,06,17,1.30
2005,05,22,06,18,0.00
2005,05,22,06,19,0.00
2005,05,22,06,20,0.00
2005,05,22,06,21,0.10
2005,05,22,06,22,2.00
2005,05,22,06,23,2.70
2005,05,22,06,24,2.30
2005,05,22,06,25,2.80
2005,05,22,06,26,3.10
2005,05,22,06,27,2.70
2005,05,22,06,28,2.60
2005,05,22,06,29,0.70
2005,05,22,06,30,0.00
2005,05,22,06,31,0.00
2005,05,22,06,32,0.00
2005,05,22,06,33,2.10
2005,05,22,06,34,2.70
2005,05,22,06,35,2.40
2005,05,22,06,36,1.60
2005,05,22,06,37,0.60
2005,05,22,06,38,0.70
2005,05,22,06,39,1.50
2005,05,22,06,40,1.40
2005,05,22,06,41,0.80
2005,05,22,06,42,0.00
2005,05,22,06,43,0.10
2005,05,22,06,44,1.40
2005,05,22,06,45,2.90
2005,05,22,06,46,2.50
2005,05,22,06,47,1.10
2005,05,22,06,48,1.00
2005,05,22,06,49,0.50
2005,05,22,06,50,1.20
2005,05,22,06,51,0.00
2005,05,22,06,52,0.00
2005,05,22,06,53,0.00
2005,05,22,06,54,0.00
2005,05,22,06,55,0.00
2005,05,22,06,56,0.00
2005,05,22,06,57,0.10
2005,05,22,06,58,4.00
2005,05,22,06,59,3.30
2005,05,22,07,00,4.50
2005,05,22,07,01,3.40
2005,05,22,07,02,3.40
2005,05,22,07,03,1.70
2005,05,22,07,04,2.40
2005,05,22,07,05,1.30
2005,05,22,07,06,3.50
2005,05,22,07,07,3.40
2005,05,22,07,08,6.20
2005,05,22,07,09,3.50
2005,05,22,07,10,4.20
2005,05,22,07,11,4.80
2005,05,22,07,12,3.30
2005,05,22,07,13,2.50
2005,05,22,07,14,7.30
2005,05,22,07,15,7.30
2005,05,22,07,16,4.80
2005,05,22,07,17,4.40
2005,05,22,07,18,3.90
2005,05,22,07,19,3.30
2005,05,22,07,20,4.20
2005,05,22,07,21,5.60
2005,05,22,07,22,2.70
2005,05,22,07,23,2.50
2005,05,22,07,24,1.80
2005,05,22,07,25,2.70
2005,05,22,07,26,2.40
2005,05,22,07,27,3.10
2005,05,22,07,28,4.80
2005,05,22,07,29,6.20
2005,05,22,07,30,2.50
2005,05,22,07,31,4.70
2005,05,22,07,32,2.70
2005,05,22,07,33,5.10
2005,05,22,07,34,3.30
2005,05,22,07,35,1.50
2005,05,22,07,36,4.20
2005,05,22,07,37,3.10
2005,05,22,07,38,3.60
2005,05,22,07,39,7.50
2005,05,22,07,40,3.70
2005,05,22,07,41,5.00
2005,05,22,07,42,3.70
2005,05,22,07,43,2.40
2005,05,22,07,44,4.80
2005,05,22,07,45,3.10
2005,05,22,07,46,4.40
2005,05,22,07,47,3.00
2005,05,22,07,48,4.40
2005,05,22,07,49,4.00
2005,05,22,07,50,4.30
2005,05,22,07,51,3.10
2005,05,22,07,52,3.00
2005,05,22,07,53,5.10
2005,05,22,07,54,8.10
2005,05,22,07,55,5.10
2005,05,22,07,56,3.40
2005,05,22,07,57,2.60
2005,05,22,07,58,4.90
2005,05,22,07,59,5.30
2005,05,22,08,00,5.60
2005,05,22,08,01,5.90
2005,05,22,08,02,5.40
2005,05,22,08,03,5.60
2005,05,22,08,04,6.70
2005,05,22,08,05,6.80
2005,05,22,08,06,6.40
2005,05,22,08,07,6.70
2005,05,22,08,08,4.70
2005,05,22,08,09,3.40
2005,05,22,08,10,4.20
2005,05,22,08,11,7.40
2005,05,22,08,12,6.00
2005,05,22,08,13,6.20
2005,05,22,08,14,7.60
2005,05,22,08,15,5.70
2005,05,22,08,16,1.30
2005,05,22,08,17,2.50
2005,05,22,08,18,4.30
2005,05,22,08,19,3.60
2005,05,22,08,20,4.80
2005,05,22,08,21,5.70
2005,05,22,08,22,5.00
2005,05,22,08,23,5.60
2005,05,22,08,24,6.10
2005,05,22,08,25,4.70
2005,05,22,08,26,7.20
2005,05,22,08,27,3.60
2005,05,22,08,28,6.10
2005,05,22,08,29,3.80
2005,05,22,08,30,5.80
2005,05,22,08,31,6.40
2005,05,22,08,32,4.40
2005,05,22,08,33,6.60
2005,05,22,08,34,6.30
2005,05,22,08,35,7.10
2005,05,22,08,36,6.80
2005,05,22,08,37,7.50
2005,05,22,08,38,4.80
2005,05,22,08,39,11.80
2005,05,22,08,40,8.00
2005,05,22,08,41,9.20
2005,05,22,08,42,6.70
2005,05,22,08,43,7.50
2005,05,22,08,44,9.60
2005,05,22,08,45,9.50
2005,05,22,08,46,3.70
2005,05,22,08,47,5.10
2005,05,22,08,48,12.50
2005,05,22,08,49,6.50
2005,05,22,08,50,5.40
2005,05,22,08,51,5.00
2005,05,22,08,52,10.80
2005,05,22,08,53,10.40
2005,05,22,08,54,12.80
2005,05,22,08,55,9.40
2005,05,22,08,56,8.90
2005,05,22,08,57,15.30
2005,05,22,08,58,8.30
2005,05,22,08,59,5.00
2005,05,22,09,00,10.60
2005,05,22,09,01,11.60
2005,05,22,09,02,13.20
2005,05,22,09,03,19.00
2005,05,22,09,04,13.70
2005,05,22,09,05,10.40
2005,05,22,09,06,9.40
2005,05,22,09,07,8.70
2005,05,22,09,08,9.60
2005,05,22,09,09,8.50
2005,05,22,09,10,10.70
2005,05,22,09,11,14.50
2005,05,22,09,12,10.40
2005,05,22,09,13,7.40
2005,05,22,09,14,7.50
2005,05,22,09,15,11.30
2005,05,22,09,16,15.20
2005,05,22,09,17,10.90
2005,05,22,09,18,11.70
2005,05,22,09,19,9.70
2005,05,22,09,20,8.70
2005,05,22,09,21,10.50
2005,05,22,09,22,10.20
2005,05,22,09,23,12.10
2005,05,22,09,24,7.50
2005,05,22,09,25,10.10
2005,05,22,09,26,10.20
2005,05,22,09,27,10.70
2005,05,22,09,28,10.00
2005,05,22,09,29,11.30
2005,05,22,09,30,10.00
2005,05,22,09,31,8.70
2005,05,22,09,32,13.40
2005,05,22,09,33,6.40
2005,05,22,09,34,4.20
2005,05,22,09,35,7.60
2005,05,22,09,36,5.10
2005,05,22,09,37,10.00
2005,05,22,09,38,7.40
2005,05,22,09,39,5.30
2005,05,22,09,40,6.80
2005,05,22,09,41,6.70
2005,05,22,09,42,6.70
2005,05,22,09,43,5.40
2005,05,22,09,44,10.00
2005,05,22,09,45,6.40
2005,05,22,09,46,8.60
2005,05,22,09,47,8.60
2005,05,22,09,48,9.80
2005,05,22,09,49,5.50
2005,05,22,09,50,12.80
2005,05,22,09,51,10.00
2005,05,22,09,52,8.50
2005,05,22,09,53,7.40
2005,05,22,09,54,9.80
2005,05,22,09,55,9.30
2005,05,22,09,56,8.60
2005,05,22,09,57,10.60
2005,05,22,09,58,6.10
2005,05,22,09,59,13.30
2005,05,22,10,00,9.50
2005,05,22,10,01,5.80
2005,05,22,10,02,4.90
2005,05,22,10,03,5.10
2005,05,22,10,04,13.00
2005,05,22,10,05,6.70
2005,05,22,10,06,6.80
2005,05,22,10,07,5.40
2005,05,22,10,08,6.10
2005,05,22,10,09,7.20
2005,05,22,10,10,6.80
2005,05,22,10,11,6.50
2005,05,22,10,12,11.40
2005,05,22,10,13,7.80
2005,05,22,10,14,4.30
2005,05,22,10,15,3.40
2005,05,22,10,16,9.70
2005,05,22,10,17,6.40
2005,05,22,10,18,5.80
2005,05,22,10,19,5.80
2005,05,22,10,20,6.70
2005,05,22,10,21,2.10
2005,05,22,10,22,4.90
2005,05,22,10,23,7.50
2005,05,22,10,24,4.50
2005,05,22,10,25,7.00
2005,05,22,10,26,12.70
2005,05,22,10,27,6.40
2005,05,22,10,28,2.20
2005,05,22,10,29,6.00
2005,05,22,10,30,6.20
2005,05,22,10,31,10.50
2005,05,22,10,32,6.80
2005,05,22,10,33,6.60
2005,05,22,10,34,9.30
2005,05,22,10,35,13.00
2005,05,22,10,36,6.10
2005,05,22,10,37,10.80
2005,05,22,10,38,7.10
2005,05,22,10,39,14.30
2005,05,22,10,40,4.70
2005,05,22,10,41,5.80
2005,05,22,10,42,3.90
2005,05,22,10,43,4.90
2005,05,22,10,44,2.50
2005,05,22,10,45,2.90
2005,05,22,10,46,3.70
2005,05,22,10,47,4.90
2005,05,22,10,48,4.70
2005,05,22,10,49,3.50
2005,05,22,10,50,12.30
2005,05,22,10,51,6.10
2005,05,22,10,52,10.10
2005,05,22,10,53,12.90
2005,05,22,10,54,10.20
2005,05,22,10,55,6.30
2005,05,22,10,56,7.60
2005,05,22,10,57,6.70
2005,05,22,10,58,3.80
2005,05,22,10,59,6.10
2005,05,22,11,00,7.40
2005,05,22,11,01,8.70
2005,05,22,11,02,7.00
2005,05,22,11,03,5.70
2005,05,22,11,04,8.90
2005,05,22,11,05,5.20
2005,05,22,11,06,4.30
2005,05,22,11,07,8.00
2005,05,22,11,08,5.40
2005,05,22,11,09,6.50
2005,05,22,11,10,4.20
2005,05,22,11,11,5.00
2005,05,22,11,12,5.10
2005,05,22,11,13,3.30
2005,05,22,11,14,4.50
2005,05,22,11,15,6.80
2005,05,22,11,16,2.50
2005,05,22,11,17,4.70
2005,05,22,11,18,2.80
2005,05,22,11,19,5.20
2005,05,22,11,20,2.60
2005,05,22,11,21,5.90
2005,05,22,11,22,3.00
2005,05,22,11,23,3.00
2005,05,22,11,24,9.70
2005,05,22,11,25,9.50
2005,05,22,11,26,7.70
2005,05,22,11,27,3.20
2005,05,22,11,28,10.10
2005,05,22,11,29,13.60
2005,05,22,11,30,8.60
2005,05,22,11,31,5.80
2005,05,22,11,32,7.30
2005,05,22,11,33,8.70
2005,05,22,11,34,5.50
2005,05,22,11,35,6.80
2005,05,22,11,36,9.70
2005,05,22,11,37,6.00
2005,05,22,11,38,5.70
2005,05,22,11,39,7.80
2005,05,22,11,40,5.90
2005,05,22,11,41,7.90
2005,05,22,11,42,9.00
2005,05,22,11,43,8.50
2005,05,22,11,44,5.30
2005,05,22,11,45,5.30
2005,05,22,11,46,6.70
2005,05,22,11,47,1.90
2005,05,22,11,48,4.80
2005,05,22,11,49,4.90
2005,05,22,11,50,4.50
2005,05,22,11,51,1.60
2005,05,22,11,52,2.60
2005,05,22,11,53,3.10
2005,05,22,11,54,8.60
2005,05,22,11,55,7.80
2005,05,22,11,56,2.20
2005,05,22,11,57,3.80
2005,05,22,11,58,7.50
2005,05,22,11,59,10.20
2005,05,22,12,00,9.70
2005,05,22,12,01,6.70
2005,05,22,12,02,5.50
2005,05,22,12,03,8.40
2005,05,22,12,06,6.60
2005,05,22,12,07,5.70
2005,05,22,12,08,4.60
2005,05,22,12,09,8.90
2005,05,22,12,10,5.70
2005,05,22,12,11,3.30
2005,05,22,12,12,8.80
2005,05,22,12,13,5.80
2005,05,22,12,14,10.20
2005,05,22,12,15,5.20
2005,05,22,12,16,6.10
2005,05,22,12,17,6.40
2005,05,22,12,18,7.20
2005,05,22,12,19,14.90
2005,05,22,12,20,8.40
2005,05,22,12,21,9.30
2005,05,22,12,22,6.80
2005,05,22,12,23,6.00
2005,05,22,12,24,2.90
2005,05,22,12,25,5.10
2005,05,22,12,26,8.90
2005,05,22,12,27,3.40
2005,05,22,12,28,5.00
2005,05,22,12,29,6.40
2005,05,22,12,30,7.10
2005,05,22,12,31,2.40
2005,05,22,12,32,5.60
2005,05,22,12,33,3.30
2005,05,22,12,34,1.60
2005,05,22,12,35,7.90
2005,05,22,12,36,5.10
2005,05,22,12,37,5.40
2005,05,22,12,38,6.10
2005,05,22,12,39,4.10
2005,05,22,12,40,4.50
2005,05,22,12,41,6.10
2005,05,22,12,42,5.40
2005,05,22,12,43,6.40
2005,05,22,12,44,7.80
2005,05,22,12,45,7.40
2005,05,22,12,46,9.20
2005,05,22,12,47,8.50
2005,05,22,12,48,5.50
2005,05,22,12,49,4.70
2005,05,22,12,50,5.20
2005,05,22,12,51,2.70
2005,05,22,12,52,6.30
2005,05,22,12,53,6.90
2005,05,22,12,54,7.80
2005,05,22,12,55,6.30
2005,05,22,12,56,2.90
2005,05,22,12,57,3.80
2005,05,22,12,58,2.70
2005,05,22,12,59,8.40
2005,05,22,13,00,10.10
2005,05,22,13,01,7.90
2005,05,22,13,02,5.20
2005,05,22,13,03,7.50
2005,05,22,13,04,5.70
2005,05,22,13,05,4.30
2005,05,22,13,06,5.50
2005,05,22,13,07,3.40
2005,05,22,13,08,1.80
2005,05,22,13,09,3.30
2005,05,22,13,10,4.80
2005,05,22,13,11,5.00
2005,05,22,13,12,7.90
2005,05,22,13,13,6.10
2005,05,22,13,14,8.00
2005,05,22,13,15,8.90
2005,05,22,13,16,6.50
2005,05,22,13,17,5.60
2005,05,22,13,18,6.70
2005,05,22,13,19,6.40
2005,05,22,13,20,6.40
2005,05,22,13,21,8.60
2005,05,22,13,22,8.60
2005,05,22,13,23,5.40
2005,05,22,13,24,4.50
2005,05,22,13,25,8.50
2005,05,22,13,26,7.30
2005,05,22,13,27,9.00
2005,05,22,13,28,4.00
2005,05,22,13,29,4.80
2005,05,22,13,30,5.30
2005,05,22,13,31,7.90
2005,05,22,13,32,6.40
2005,05,22,13,33,9.00
2005,05,22,13,34,10.00
2005,05,22,13,35,3.90
2005,05,22,13,36,9.30
2005,05,22,13,37,9.20
2005,05,22,13,38,7.00
2005,05,22,13,39,7.30
2005,05,22,13,40,6.60
2005,05,22,13,41,4.10
2005,05,22,13,42,1.50
2005,05,22,13,43,8.20
2005,05,22,13,44,4.10
2005,05,22,13,45,4.90
2005,05,22,13,46,5.90
2005,05,22,13,47,8.50
2005,05,22,13,48,7.80
2005,05,22,13,49,6.40
2005,05,22,13,50,5.70
2005,05,22,13,51,6.00
2005,05,22,13,52,5.50
2005,05,22,13,53,2.10
2005,05,22,13,54,5.10
2005,05,22,13,55,7.60
2005,05,22,13,56,1.90
2005,05,22,13,57,3.90
2005,05,22,13,58,4.20
2005,05,22,13,59,6.80
2005,05,22,14,00,8.50
2005,05,22,14,01,10.60
2005,05,22,14,02,7.40
2005,05,22,14,03,9.00
2005,05,22,14,04,5.60
2005,05,22,14,05,8.00
2005,05,22,14,06,6.70
2005,05,22,14,07,7.60
2005,05,22,14,08,6.20
2005,05,22,14,09,7.10
2005,05,22,14,10,6.80
2005,05,22,14,11,5.00
2005,05,22,14,12,10.00
2005,05,22,14,13,7.70
2005,05,22,14,14,7.70
2005,05,22,14,15,9.30
2005,05,22,14,16,9.80
2005,05,22,14,17,9.00
2005,05,22,14,18,4.50
2005,05,22,14,19,7.40
2005,05,22,14,20,9.70
2005,05,22,14,21,13.40
2005,05,22,14,22,8.40
2005,05,22,14,23,6.40
2005,05,22,14,24,4.60
2005,05,22,14,25,5.20
2005,05,22,14,26,9.70
2005,05,22,14,27,5.50
2005,05,22,14,28,11.20
2005,05,22,14,29,5.10
2005,05,22,14,30,6.40
2005,05,22,14,31,5.20
2005,05,22,14,32,10.30
2005,05,22,14,33,11.30
2005,05,22,14,34,3.10
2005,05,22,14,35,9.60
2005,05,22,14,36,4.80
2005,05,22,14,37,4.00
2005,05,22,14,38,4.50
2005,05,22,14,39,7.60
2005,05,22,14,40,5.90
2005,05,22,14,41,1.30
2005,05,22,14,42,0.70
2005,05,22,14,43,7.00
2005,05,22,14,44,3.60
2005,05,22,14,45,7.00
2005,05,22,14,46,7.50
2005,05,22,14,47,6.50
2005,05,22,14,48,3.70
2005,05,22,14,49,4.50
2005,05,22,14,50,4.90
2005,05,22,14,51,2.20
2005,05,22,14,52,2.20
2005,05,22,14,53,3.50
2005,05,22,14,54,2.30
2005,05,22,14,55,5.50
2005,05,22,14,56,7.70
2005,05,22,14,57,4.60
2005,05,22,14,58,8.30
2005,05,22,14,59,7.20
2005,05,22,15,00,7.20
2005,05,22,15,01,6.60
2005,05,22,15,02,7.70
2005,05,22,15,03,6.30
2005,05,22,15,04,8.50
2005,05,22,15,05,5.00
2005,05,22,15,06,6.00
2005,05,22,15,07,10.20
2005,05,22,15,08,9.20
2005,05,22,15,09,5.70
2005,05,22,15,10,2.60
2005,05,22,15,11,8.70
2005,05,22,15,12,2.20
2005,05,22,15,13,10.00
2005,05,22,15,14,7.70
2005,05,22,15,15,6.80
2005,05,22,15,16,5.70
2005,05,22,15,17,7.90
2005,05,22,15,18,10.40
2005,05,22,15,19,5.00
2005,05,22,15,20,3.10
2005,05,22,15,21,3.90
2005,05,22,15,22,1.80
2005,05,22,15,23,4.00
2005,05,22,15,24,8.70
2005,05,22,15,25,3.60
2005,05,22,15,26,3.40
2005,05,22,15,27,0.60
2005,05,22,15,28,2.30
2005,05,22,15,29,6.30
2005,05,22,15,30,7.60
2005,05,22,15,31,8.70
2005,05,22,15,32,7.50
2005,05,22,15,33,5.40
2005,05,22,15,34,4.20
2005,05,22,15,35,5.70
2005,05,22,15,36,12.10
2005,05,22,15,37,5.90
2005,05,22,15,38,10.60
2005,05,22,15,39,6.40
2005,05,22,15,40,2.70
2005,05,22,15,41,7.80
2005,05,22,15,42,6.20
2005,05,22,15,43,13.10
2005,05,22,15,44,8.60
2005,05,22,15,45,9.30
2005,05,22,15,46,2.90
2005,05,22,15,47,3.40
2005,05,22,15,48,5.50
2005,05,22,15,49,10.80
2005,05,22,15,50,5.70
2005,05,22,15,51,6.70
2005,05,22,15,52,13.20
2005,05,22,15,53,6.30
2005,05,22,15,54,4.30
2005,05,22,15,55,7.40
2005,05,22,15,56,4.20
2005,05,22,15,57,7.10
2005,05,22,15,58,5.90
2005,05,22,15,59,6.50
2005,05,22,16,00,12.80
2005,05,22,16,01,10.60
2005,05,22,16,02,11.70
2005,05,22,16,03,13.80
2005,05,22,16,04,12.40
2005,05,22,16,05,15.60
2005,05,22,16,06,6.30
2005,05,22,16,07,4.90
2005,05,22,16,08,3.30
2005,05,22,16,09,3.50
2005,05,22,16,10,2.40
2005,05,22,16,11,12.50
2005,05,22,16,12,10.20
2005,05,22,16,13,9.00
2005,05,22,16,14,11.40
2005,05,22,16,15,7.90
2005,05,22,16,16,5.10
2005,05,22,16,17,4.80
2005,05,22,16,18,5.40
2005,05,22,16,19,3.20
2005,05,22,16,20,2.40
2005,05,22,16,21,5.40
2005,05,22,16,22,6.80
2005,05,22,16,23,17.40
2005,05,22,16,24,5.80
2005,05,22,16,25,7.70
2005,05,22,16,26,10.70
2005,05,22,16,27,12.80
2005,05,22,16,28,9.10
2005,05,22,16,29,13.40
2005,05,22,16,30,10.60
2005,05,22,16,31,9.30
2005,05,22,16,32,9.40
2005,05,22,16,33,8.00
2005,05,22,16,34,5.70
2005,05,22,16,35,6.10
2005,05,22,16,36,4.70
2005,05,22,16,37,15.50
2005,05,22,16,38,9.50
2005,05,22,16,39,10.70
2005,05,22,16,40,4.20
2005,05,22,16,41,5.00
2005,05,22,16,42,3.40
2005,05,22,16,43,6.90
2005,05,22,16,44,8.00
2005,05,22,16,45,8.90
2005,05,22,16,46,6.20
2005,05,22,16,47,3.10
2005,05,22,16,48,7.00
2005,05,22,16,49,14.50
2005,05,22,16,50,7.10
2005,05,22,16,51,5.50
2005,05,22,16,52,6.00
2005,05,22,16,53,10.60
2005,05,22,16,54,9.60
2005,05,22,16,55,10.00
2005,05,22,16,56,3.30
2005,05,22,16,57,7.10
2005,05,22,16,58,5.90
2005,05,22,16,59,9.50
2005,05,22,17,00,8.00
2005,05,22,17,01,6.70
2005,05,22,17,02,8.80
2005,05,22,17,03,8.40
2005,05,22,17,04,4.60
2005,05,22,17,05,6.80
2005,05,22,17,06,3.70
2005,05,22,17,07,3.90
2005,05,22,17,08,7.20
2005,05,22,17,09,7.20
2005,05,22,17,10,4.60
2005,05,22,17,11,2.10
2005,05,22,17,12,7.50
2005,05,22,17,13,7.40
2005,05,22,17,14,8.10
2005,05,22,17,15,2.90
2005,05,22,17,16,5.60
2005,05,22,17,17,8.10
2005,05,22,17,18,4.10
2005,05,22,17,19,10.50
2005,05,22,17,20,10.90
2005,05,22,17,21,13.50
2005,05,22,17,22,8.50
2005,05,22,17,23,6.40
2005,05,22,17,24,8.00
2005,05,22,17,25,9.00
2005,05,22,17,26,7.90
2005,05,22,17,27,7.80
2005,05,22,17,28,10.30
2005,05,22,17,29,13.60
2005,05,22,17,30,5.20
2005,05,22,17,31,12.40
2005,05,22,17,32,7.40
2005,05,22,17,33,5.20
2005,05,22,17,34,13.00
2005,05,22,17,35,2.80
2005,05,22,17,36,3.10
2005,05,22,17,37,8.70
2005,05,22,17,38,6.70
2005,05,22,17,39,4.50
2005,05,22,17,40,5.80
2005,05,22,17,41,7.20
2005,05,22,17,42,6.20
2005,05,22,17,43,8.20
2005,05,22,17,44,13.00
2005,05,22,17,45,13.60
2005,05,22,17,46,16.30
2005,05,22,17,47,17.40
2005,05,22,17,48,7.30
2005,05,22,17,49,4.50
2005,05,22,17,50,4.40
2005,05,22,17,51,2.60
2005,05,22,17,52,8.20
2005,05,22,17,53,8.10
2005,05,22,17,54,5.30
2005,05,22,17,55,9.50
2005,05,22,17,56,5.90
2005,05,22,17,57,5.40
2005,05,22,17,58,6.10
2005,05,22,17,59,8.00
2005,05,22,18,00,11.20
2005,05,22,18,01,13.00
2005,05,22,18,02,11.40
2005,05,22,18,03,4.50
2005,05,22,18,04,6.00
2005,05,22,18,05,10.80
2005,05,22,18,06,8.80
2005,05,22,18,07,6.60
2005,05,22,18,08,8.60
2005,05,22,18,09,5.60
2005,05,22,18,10,7.60
2005,05,22,18,11,9.30
2005,05,22,18,12,10.30